Погода Екеже

Погода Екеже : погода сейчас, прогноз погоды и архив. Всё, что Вы хотите узнать о погоде Екеже!

Хотите узнать прогноз погоды Екеже? Тогда Вам сюда: Погода Екеже

Поиск расширенной информации на нашем сайте:

Другие новости

Новости СМИ2

Главная страница сайта

Новости сайта

03.07.2017

Напоминаем, что на нашем специализированном сайте Метеоцентр.Азия вы можете получить высокодетализированные автоматические прогнозы погоды по пунктам России, СНГ и мира в авиационном формате (включающие направление и скорость ветра, видимость, явления погоды, количество и форму облачности, нижнюю и верхнюю границу облачности).


Погода Екеже - сегодня

Время (UTC), дата Ветер
(°,м/с) 
Видим.   Явления Облачность Т
(°С)
Тd
(°С)
f(%) Тe
(°С)
Pmin
(гПа)
dP
(гПа)
Po
(мм)
O2
(г/м3)
Тmin Tmax R s Состояние
почвы
03 21.11.17 тихо ()   20000 м    ясно 
+5 -2.6 58 +5  1015.7  -0.6  756  300  +4.8        полностью
покрыта
пылью 
06 21.11.17 110 (В) 20000 м    6/0 верхняя 
[Ci ing]
+11.8 -0.2 44 +12  1015.6  756  292  +4.8         
09 21.11.17 110 (В) 20000 м    6/0 верхняя 
[Ci ing]
+18.2 -3 23 +19  1013.2  -2.1  755  285           
12 21.11.17 110 (В) 20000 м    4/0 верхняя 
[Ci ing]
+19.4 -7.8 15 +20  1011.5  -1.7  754  284           
15 21.11.17 тихо ()   20000 м    ясно 
+13 -9.4 20 +13  1011.3  -0.3  753  291    +19.8       
18 21.11.17 тихо ()   20000 м    ясно 
+10 -8.6 26 +10  1010.8  -0.6  753  293    +19.8       
21 21.11.17 тихо ()   20000 м    ясно 
+8.2 -6.4 35 +8  1010.5  -0.3  753  295           
00 22.11.17 тихо ()   20000 м    ясно 
+7 -4.1 45 +7  1010.2  -0.3  752  296           
03 22.11.17 110 (В) 20000 м    6/0 верхняя 
[Ci fib]
+8 -9 29 +7  1007.5  -2.7  750  295           
09 22.11.17 110 (В) 20000 м    9/9 600 м 
[Sc]
+15.1 -10.3 16 +16  1005.5  -1.3  749  287           
12 22.11.17 110 (В) 20000 м    9/9 600 м 
[Sc]
+16.7 -11.7 13 +18  1005  -0.5  749  285           
15 22.11.17 090 (В) 20000 м    9/9 600 м кучево-дожд. 
[Cb cap]
+11.7 -12.7 17 +12  1005.1  749  290    +17.1       
18 22.11.17 230 (ЮЗ) 20000 м    ясно 
+11.4 -11.2 19 +12  1005.2  0.1  749  291    +17.1       
21 22.11.17 230 (ЮЗ) 20000 м    ясно 
+11 -10.3 21 +12  1005.4  0.2  749  291           
00 23.11.17 270 (З) 20000 м    9/9 600 м кучево-дожд. 
[Cb cap]
+7.8 +2.3 68 +7  1008.3  2.9  751  294           
03 23.11.17 270 (З) 20000 м    9/9 600 м кучево-дожд. 
[Cb cap]
+9 +5.8 80 +8  1008.7  0.4  751  292           
06 23.11.17 320 (СЗ) 20000 м    10/10 600 м кучево-дожд. 
[Cb cap]
+6.8 +4 82 +5  1011.3  2.5  753  296  +7.5         
09 23.11.17 360 (С) 20000 м    6/0 средняя 
[Ac trans]
+11 +3.2 59 +12  1009.5  -1.7  752  291           
12 23.11.17 340 (С) 20000 м    6/6 600 м кучево-дожд. 
[Cb cap]
+10.4 +4.1 65 +11  1010.2  0.7  752  291           
18 23.11.17 290 (З) 20000 м    10/10 600 м кучево-дожд. 
[Cb cap]
+8.2 +2.7 68 +8  1014.3  1.8  755  295    +11.4       
21 23.11.17 290 (З) 20000 м    10/10 600 м кучево-дожд. 
[Cb cap]
+7.4 +3.2 75 +7  1015.2  0.8  756  296           
03 24.11.17 340 (С) 20000 м    9/9 600 м 
[Sc]
+6.8 +2.7 75 +6  1017.9  1.6  758  298           
06 24.11.17 340 (С) 20000 м    10/10 600 м 
[Sc]
+8 +3 71 +7  1018.9  1.1  759  297  +6.7         
09 24.11.17 360 (С) 20000 м    10/10 600 м 
[Sc]
+9.3 +3.8 68 +9  1018.6  -0.3  759  295           
12 24.11.17 360 (С) 20000 м    10/10 600 м 
[Sc]
+8 +1.1 62 +8  1018.1  -0.5  758  297           
Время (UTC), дата Ветер
(°,м/с) 
Видим.   Явления Облачность Т
(°С)
Тd
(°С)
f(%) Тe
(°С)
Pmin
(гПа)
dP
(гПа)
Po
(мм)
O2
(г/м3)
Тmin Tmax R s Состояние
почвы

Для получения пояснительной информации подведите курсор к названию столбца.

ПОГОДА Екеже - архив

Всё, что Вы хотите узнать о погоде Екеже - удобно и подробно!

Выберите нужную дату (начиная с 1 января 2015* года) и нажмите кнопку "Найти".
Будут отображены архивные сводки погоды по пункту Екеже, начиная с указанной даты.


Отображать данные в формате CSV (для использования в таблицах Excel)


Внимание! Наш архив погоды предназначен исключительно для личного некоммерческого использования в познавательных целях. Если Вам необходимы официальные справки о состоянии погоды (для производственных, юридических, коммерческих и т.п. целей), обращайтесь в органы Росгидромета.

*Примечание: данная дата относится к архиву по метеостанциям СССР (Россия, СНГ, Балтия).
Архив по метеостанциям Зарубежной Европы и Азии (кроме Китая) хранится 10 дней, по другим регионам земного шара (Китай, Африка, Америка, Австралия, Океания) - 1 день.

Екеже - район местоположения метеостанции


Название, широта, долгота, высота метеостанции:
Екеже 41°ш. 57.8°д. 308 м над ур. моря [Туркменистан]

Дополнительная информация

В oтличие oт бoльшинства пoгoдных сайтoв мы публикуем пoдрoбную метеoинфoрмацию в детальнoм прoфессиoнальнoм фoрмате.

Характеристики температуры и влажнoсти вoздуха измеряются на высoте 2 м в тени вдали oт зданий и деревьев.
Скoрoсть ветра измеряется на высoте 10 м (на урoвне рoста челoвека скoрoсть ветра ниже в 1.5-2 раза). Если метеoстанция нахoдится в гoрoде или в лесу, тo скoрoсть ветра занижена на 2-4 м/с пo сравнению с oткрытым местoм. Скoрoсть ветра над акватoриями крупных рек и oзёр, а также на вершинах хoлмoв на 2-5 м/с выше, чем в oбычных услoвиях.
Атмoсфернoе давление в разных тoчках местнoсти мoжет значительнo oтличаться oт давления на метеoстанции, в зависимoсти oт услoвий рельефа (при пoдъёме на 10 м давление пoнижается примернo на 1 мм рт.ст.).